EHI
0 0 0 0 0 0 0 0 0 0 0 0 0 0 0 0 0 0 0 0 1 2 3 3 3 3 2 1 0 0 0 0 0 1 0 0 0 0 0 0 0 0 0
0 0 0 0 0 0 0 0 0 0 0 0 0 0 0 0 0 0 0 0 1 1 2 3 3 2 1 0 0 0 0 0 1 1 1 1 0 0 0 0 0 0 0
0 0 0 0 0 0 0 0 0 0 0 0 0 0 0 0 0 0 0 0 0 0 1 2 2 1 0 0 0 0 0 0 1 2 2 1 0 0 0 0 0 0 0
0 0 0 0 0 0 0 0 0 0 0 0 0 0 0 0 0 0 0 0 0 0 0 1 1 0 0 0 0 0 0 0 0 1 1 1 0 0 0 0 0 0 0
0 0 0 0 0 0 0 0 0 0 0 0 0 0 0 0 0 0 0 0 0 0 0 0 0 0 0 0 0 0 0 0 0 1 1 1 0 0 0 1 1 0 0
0 0 0 0 0 0 0 0 0 0 0 0 0 0 0 0 0 0 0 0 0 0 0 0 0 0 0 0 0 0 0 0 0 1 2 2 1 0 1 2 2 1 0
0 0 0 0 0 0 0 0 0 0 0 0 0 0 0 0 0 0 0 0 0 0 0 0 0 0 0 0 0 0 0 0 0 1 2 2 1 1 1 2 2 1 0
0 0 0 0 0 0 0 0 0 0 0 0 0 0 0 0 0 0 0 0 0 0 0 0 0 0 0 0 0 0 0 0 0 0 1 1 1 0 1 1 1 0 0
0 0 0 0 0 0 0 0 0 0 0 0 0 0 0 0 0 0 0 0 0 0 0 0 0 0 0 0 0 0 0 0 0 0 0 0 0 0 0 0 0 0 0
0 0 0 0 0 0 0 0 0 0 0 0 0 0 0 0 0 0 0 0 0 0 0 0 0 0 0 0 0 0 0 0 0 0 0 0 0 0 0 0 0 0 0
0 0 0 0 0 0 0 0 0 0 0 0 0 0 0 0 0 0 0 0 0 0 0 0 0 0 0 0 0 0 0 0 0 0 0 0 0 0 0 0 0 0 0
0 0 0 0 0 0 0 0 0 0 0 0 0 0 0 0 0 0 0 0 0 0 0 0 0 0 0 0 0 0 0 0 0 0 0 0 0 0 0 0 0 0 0
0 0 0 0 0 0 0 0 0 0 0 0 0 0 0 0 0 0 0 0 0 0 0 0 0 0 0 0 0 0 0 0 0 0 0 0 0 0 0 0 0 0 0
0 0 0 0 0 0 0 0 0 0 0 0 0 0 0 0 0 0 0 0 0 0 0 0 0 0 0 0 0 0 0 0 0 0 0 0 0 0 0 0 0 0 0
0 0 0 0 0 0 0 0 0 0 0 0 0 0 0 0 0 0 0 0 0 0 0 0 0 0 0 0 0 0 0 0 0 0 0 0 0 0 0 0 0 0 0
0 0 0 0 0 0 0 0 0 0 0 0 0 0 0 0 0 0 0 0 0 0 0 0 0 0 0 0 0 0 0 0 0 0 0 0 0 0 0 0 0 0 0
0 0 0 0 0 0 0 0 0 0 0 0 0 0 0 0 0 0 0 0 0 0 0 0 0 0 0 0 0 0 0 0 0 0 0 0 0 0 0 0 0 0 0
0 0 0 0 0 0 0 0 0 0 0 0 0 0 0 0 0 0 0 0 0 0 0 0 0 0 0 0 0 0 0 0 0 0 0 0 0 0 0 0 0 0 0
0 0 0 0 0 0 0 0 0 0 0 0 0 0 0 0 0 0 0 0 0 0 0 0 0 0 0 0 0 0 0 0 0 0 0 0 0 0 0 0 0 0 0
0 0 0 0 0 0 0 0 0 0 0 0 0 0 0 0 0 0 0 0 0 0 0 0 0 0 0 0 0 0 0 0 0 0 0 0 0 0 0 0 0 0 0
0 0 0 0 0 0 0 0 0 0 0 0 0 0 0 0 0 0 0 0 0 0 0 0 0 0 0 0 0 0 0 0 0 0 0 0 0 0 0 0 0 0 0
0 0 0 0 0 0 0 0 0 0 0 0 0 0 0 0 0 0 0 0 0 0 0 0 0 0 0 0 0 0 0 0 0 0 0 0 0 0 0 0 0 0 0
0 0 0 0 0 0 0 0 0 0 0 0 0 0 0 0 0 0 0 0 0 0 0 0 0 0 0 0 0 0 0 0 0 0 0 0 0 0 0 0 0 0 0
0 0 0 0 0 0 0 0 0 0 0 0 0 0 0 0 0 0 0 0 0 0 0 0 0 0 0 0 0 0 0 0 0 0 0 0 0 0 0 0 0 0 0
0 0 0 0 0 0 0 0 0 0 0 0 0 0 0 0 0 0 0 0 0 0 0 0 0 0 0 0 0 0 0 0 0 0 0 0 0 0 0 0 0 0 0
0 0 0 0 0 0 0 0 0 0 0 0 0 0 0 0 0 0 0 0 0 0 0 0 0 0 0 0 0 0 0 0 0 0 0 0 0 0 0 0 0 0 0
Wind_Speed
2 2 2 2 3 3 4 4 4 5 6 6 5 6 6 6 6 5 5 13 14 12 11 11 10 10 10 9 9 9 10 9 9 9 10 10 10 10 10 10 10 10 9
2 2 3 3 3 3 3 4 5 5 5 5 6 6 6 6 6 6 6 8 14 14 12 12 11 11 11 10 10 10 10 10 10 11 11 11 10 10 11 11 10 10 10
3 3 3 3 2 3 4 4 5 4 5 5 5 6 6 6 6 7 7 6 7 12 15 13 13 12 11 11 11 11 11 11 11 11 11 11 10 10 10 10 10 10 10
3 3 3 2 3 3 3 4 4 4 4 4 4 4 5 5 6 6 6 6 6 6 10 15 14 13 13 12 12 11 10 11 11 11 11 10 10 10 9 9 10 10 10
3 3 3 2 3 3 3 4 3 3 4 4 4 5 4 4 4 5 6 7 6 6 6 10 14 14 13 13 12 12 11 11 11 11 11 11 11 10 10 10 10 10 10
3 3 3 3 3 3 3 3 4 4 3 4 5 6 4 4 4 5 5 5 5 6 6 7 6 9 14 13 13 12 12 12 12 12 12 12 11 11 11 11 11 11 11
3 3 3 3 3 3 3 4 4 5 3 2 4 4 4 4 5 4 4 4 5 6 6 6 5 5 5 12 13 12 12 12 12 12 12 12 12 12 12 12 11 11 11
2 3 3 3 3 3 4 3 3 3 1 1 2 3 2 3 4 4 4 4 5 4 6 7 6 6 5 4 8 12 12 12 12 12 12 12 12 12 12 11 12 11 11
2 3 3 3 3 3 3 3 3 3 2 1 1 3 3 1 1 3 4 4 4 4 4 4 6 6 6 5 5 9 12 12 12 12 12 12 12 12 12 12 12 12 12
2 3 3 3 3 3 3 2 2 2 3 2 1 2 2 3 3 1 2 3 4 5 5 5 5 5 6 5 6 10 12 11 11 11 12 12 11 11 11 12 12 12 12
2 2 3 3 3 2 2 2 2 2 2 2 2 2 2 2 2 3 1 2 3 3 3 4 4 4 5 5 4 7 11 11 11 11 11 11 10 10 10 11 11 11 11
2 2 2 2 2 2 2 2 2 2 2 2 2 2 2 2 2 3 3 1 1 2 2 3 3 3 3 4 5 8 9 10 10 10 10 10 10 10 10 10 10 10 11
0 1 1 1 2 2 2 2 3 2 2 3 2 1 1 1 2 3 3 2 1 1 2 2 2 3 3 3 3 7 8 9 9 9 9 10 10 10 10 10 10 10 11
1 1 1 2 2 2 2 3 3 2 2 2 3 2 2 1 2 3 4 4 2 1 2 2 2 2 2 2 4 6 5 8 8 8 9 9 9 9 9 9 10 10 10
2 2 2 2 2 2 2 3 3 2 3 2 2 2 2 1 2 2 2 3 4 2 1 1 1 2 2 1 3 3 3 6 7 7 7 8 8 8 8 8 8 8 8
2 3 2 2 2 2 2 3 2 2 3 2 2 3 2 1 2 2 2 2 2 3 2 1 1 1 1 2 3 2 2 5 5 6 6 6 6 6 6 6 7 7 7
3 3 3 3 3 3 3 3 2 2 3 2 2 2 2 2 2 2 2 2 2 2 3 0 0 1 1 2 2 2 2 2 2 5 4 4 4 4 5 5 5 5 6
3 3 3 3 3 3 2 3 3 2 3 2 2 2 2 2 2 2 2 2 2 2 3 2 0 0 0 1 1 1 2 1 1 3 3 3 4 4 4 4 4 4 5
2 2 3 3 3 3 3 2 3 2 2 2 2 3 2 3 2 2 2 2 2 2 2 3 1 0 0 1 1 1 1 2 2 2 2 3 3 4 4 4 3 3 4
3 3 3 3 3 3 3 3 3 3 2 2 1 2 2 3 4 3 3 3 3 3 2 2 1 1 0 0 1 0 1 1 2 2 3 3 3 4 4 4 4 3 3
3 3 3 2 3 3 3 4 4 3 3 2 1 1 2 3 5 4 3 4 4 3 2 2 1 1 0 0 1 1 1 1 2 1 2 2 2 2 3 4 4 4 3
3 3 3 3 3 3 5 6 5 3 3 3 2 1 1 2 3 4 5 6 7 5 4 3 2 2 3 2 1 1 1 0 2 1 0 2 1 2 2 2 4 5 5
3 3 3 3 3 3 6 7 6 4 3 2 2 1 1 1 2 2 2 3 3 4 6 5 4 4 4 4 3 2 2 2 3 2 1 2 1 2 3 2 5 5 5
3 3 3 3 3 4 6 7 7 4 2 2 2 2 2 2 3 4 3 2 1 1 3 3 4 4 3 3 4 4 3 2 1 1 1 2 2 2 2 2 4 5 4
3 3 3 4 4 4 6 7 7 3 2 2 2 2 2 2 4 6 4 3 1 1 1 3 3 3 2 3 4 3 2 1 1 2 1 1 2 2 2 2 3 4 4
4 4 3 3 4 4 6 7 7 3 3 2 1 1 3 4 5 6 5 4 4 3 1 1 0 1 0 1 4 4 3 2 1 2 2 2 1 1 2 2 2 2 3
Wind_Direction
69 65 60 58 61 65 72 77 80 78 74 69 67 64 55 47 41 35 29 44 50 55 62 65 67 67 70 72 74 75 72 71 69 70 76 77 74 71 67 63 62 58 56
88 79 68 67 68 74 77 81 82 82 76 74 68 62 56 49 43 41 36 35 42 47 55 60 61 63 65 67 70 71 71 72 72 75 78 76 74 70 66 62 61 57 54
96 92 83 77 75 85 89 85 78 76 80 74 66 63 59 51 48 44 40 36 32 37 45 53 56 58 60 64 67 69 69 72 74 75 76 76 73 69 66 65 65 59 53
106 102 96 88 88 89 92 93 86 83 75 72 67 59 56 52 51 48 44 38 36 32 32 44 50 53 57 61 64 67 68 70 73 74 74 73 71 69 67 68 66 61 56
99 105 101 94 98 95 91 102 85 91 92 83 79 66 57 53 46 49 46 40 38 37 32 36 42 45 51 56 58 63 68 70 73 73 72 71 69 67 67 66 64 60 56
95 100 101 98 102 99 91 95 94 80 85 90 87 73 58 53 49 44 42 40 40 40 38 37 33 32 41 48 54 59 66 70 73 74 72 70 68 66 66 64 59 57 53
90 102 108 103 106 111 116 114 105 94 82 90 87 71 50 49 51 41 36 38 39 37 39 37 35 32 29 39 45 52 58 64 68 69 69 68 67 64 63 62 59 54 50
77 106 114 117 115 111 107 113 116 113 101 81 107 103 63 27 28 36 35 42 36 33 38 39 36 35 33 31 39 49 53 58 65 67 68 66 64 62 59 58 56 54 51
76 94 112 119 117 124 137 141 139 131 137 74 76 126 130 156 27 16 32 37 33 35 30 32 36 31 33 34 32 43 52 55 61 64 66 65 63 61 59 58 54 52 51
73 87 98 109 116 122 134 152 142 132 134 134 76 61 101 139 136 80 10 21 32 37 32 31 29 29 30 31 39 49 54 53 57 61 63 62 62 61 60 57 55 53 52
50 73 88 101 110 119 132 126 118 114 125 138 140 124 94 74 95 128 121 5 18 20 27 28 25 24 24 25 29 49 55 54 55 56 57 57 56 57 56 56 55 54 54
33 52 78 94 105 113 125 130 120 111 113 116 118 126 142 141 149 133 138 141 27 349 11 24 22 14 20 20 33 51 57 56 54 53 52 49 48 52 52 54 53 53 51
69 45 79 95 96 109 114 115 107 103 112 115 125 123 123 133 139 132 129 139 115 338 356 13 9 6 21 22 23 44 54 59 56 54 50 48 46 48 48 47 48 48 47
180 162 127 114 107 108 108 110 104 107 105 109 107 111 110 113 124 139 145 140 120 23 11 344 349 6 6 19 31 37 43 58 55 55 54 51 49 46 44 41 40 40 39
158 145 138 123 110 107 110 113 106 109 104 100 105 106 104 99 103 119 136 144 144 149 254 303 333 345 353 28 33 36 33 52 53 53 57 53 51 48 44 40 36 34 36
144 134 123 120 112 108 108 104 103 112 109 101 106 102 94 93 92 97 116 115 129 145 157 228 253 307 357 47 56 45 32 43 46 51 50 49 48 45 43 38 36 34 34
151 150 147 134 125 118 116 112 108 114 113 102 98 111 112 113 111 106 107 106 108 121 138 187 335 356 36 28 19 21 34 26 15 37 37 39 41 37 33 29 30 30 30
159 156 147 139 138 131 127 126 129 126 124 129 132 125 133 126 117 114 118 123 131 129 140 157 189 20 25 352 358 16 16 20 2 18 23 29 27 22 20 17 18 22 21
150 144 144 151 153 148 144 138 128 127 132 146 155 155 161 143 141 135 133 133 132 118 118 139 156 108 7 18 29 2 6 351 340 358 3 4 5 7 5 4 4 4 4
154 155 155 162 162 156 150 144 137 129 130 136 153 169 172 169 171 162 154 156 138 120 114 123 135 122 298 335 80 351 332 331 326 345 350 345 342 343 342 343 345 346 346
162 158 148 151 152 155 163 160 155 150 144 138 146 184 191 179 177 175 168 168 152 140 134 138 153 137 204 198 226 220 235 308 305 322 325 329 334 333 326 319 319 324 329
155 152 162 165 174 185 176 166 155 154 161 159 166 191 193 183 178 170 167 169 166 162 168 168 181 192 219 213 195 183 172 73 297 298 295 301 330 301 295 292 310 311 310
159 161 173 169 183 191 178 169 163 149 160 171 171 168 179 170 170 158 150 149 170 177 176 173 183 204 204 206 182 184 193 195 227 260 159 279 293 289 288 301 312 311 307
170 174 180 182 183 199 185 173 167 147 155 176 182 186 183 203 185 163 148 142 178 216 203 193 195 211 207 192 183 191 198 200 265 286 148 257 283 279 304 306 316 319 314
181 184 182 182 187 204 193 182 166 148 159 193 211 202 192 206 199 173 158 168 201 260 222 183 188 196 194 179 159 128 126 125 271 272 194 220 273 292 298 300 308 324 325
186 181 183 188 190 199 193 186 174 155 169 193 213 224 213 208 201 183 175 178 201 235 210 177 186 303 258 191 172 172 176 170 199 265 227 200 252 303 306 296 313 321 326